Location: Berg
(47.2344°N, 9.5296°E)
Time: 19:24:18
(UTC+00:00)

KKS-1 - Visible Passes

Search period start: 07 December 2021 00:00
Search period end: 17 December 2021 00:00
Orbit: 637 x 649 km, 98.2° (Epoch: 07 December)

Date Brightness Start Highest point End Pass type
(mag) Time Alt. Az. Time Alt. Az. Time Alt. Az.
08 Dec ? 06:21:50 10° E 06:23:40 12° ENE 06:25:32 10° NNE visible
12 Dec ? 06:22:22 10° E 06:24:12 12° ENE 06:26:03 10° NNE visible
16 Dec ? 06:22:54 10° E 06:24:44 12° ENE 06:26:33 10° NNE visible
